[[{"header":{"parameterUnit":"m.s-1","parameterCategory":2,"la1":30.2991,"la2":30.254,"lo1":-89.0895,"lo2":-89.0444,"dy":0.0017,"dx":0.0017,"nx":28,"ny":28,"refTime":"2024-05-30T03:00:00:Z","depth":"0","parameterNumber":2,"parameterNumberName":"U-component_of_CURRENTS"},"data":[0,0,0,0,0,0,0,0,0,0,0,0,0,0,0,0,0,0,0,0,0,0,0,0,0,0,0,0,0,0,0,0,0,0,0,0,0,0,0,0,0,0,0,0,0,0,0,0,0,0,0,0,0,0,0,0,0,0,-0.2216,-0.2217,0,-0.2283,-0.2283,-0.2284,-0.2282,-0.2281,-0.2281,-0.228,-0.2248,-0.2248,-0.2248,0,0,0,0,0,0,0,0,0,0,0,0,0,-0.2113,-0.2115,-0.2216,-0.2218,-0.2219,-0.2283,-0.2283,-0.2284,-0.2282,-0.2281,-0.228,-0.228,-0.2248,-0.2248,-0.2248,0,0,0,0,0,0,0,0,0,0,0,0,0,-0.2163,-0.2115,-0.2216,-0.2229,-0.2231,-0.2283,-0.2283,-0.2284,-0.2282,-0.2281,-0.228,-0.228,-0.2249,-0.2248,-0.2248,-0.226,0,0,-0.2246,-0.2246,0,0,0,0,0,0,0,0,-0.216,-0.2166,-0.2226,-0.2228,-0.223,-0.2277,-0.2236,-0.2272,-0.2282,-0.2258,-0.228,-0.2279,-0.2252,-0.2251,-0.2261,-0.2259,-0.2257,-0.2246,-0.2246,-0.2245,-0.2245,0,0,0,0,0,0,0,-0.2156,-0.2163,-0.2238,-0.2227,-0.223,-0.224,-0.2245,-0.2243,-0.2254,-0.226,-0.2261,-0.2275,-0.2252,-0.2262,-0.226,-0.2257,-0.2246,-0.2245,-0.2245,-0.2245,-0.2286,-0.2287,0,0,0,0,0,0,-0.2157,-0.216,-0.2236,-0.2241,-0.2197,-0.2243,-0.2248,-0.2259,-0.2256,-0.2257,-0.2276,-0.2275,-0.2263,-0.2261,-0.2259,-0.228,-0.2245,-0.2245,-0.2245,-0.2285,-0.2286,-0.2288,0,0,0,0,0,0,-0.2154,-0.2162,-0.2234,-0.2205,-0.2215,-0.2245,-0.2257,-0.2261,-0.2274,-0.227,-0.2268,-0.2286,-0.2262,-0.2259,-0.2261,-0.2278,-0.2245,-0.2244,-0.2283,-0.2285,-0.2287,-0.2318,0,0,0,0,0,0,-0.2151,-0.2161,-0.2162,-0.2205,-0.2217,-0.2273,-0.2259,-0.2263,-0.2286,-0.2285,-0.2277,-0.2274,-0.2261,-0.2263,-0.2261,-0.2277,-0.2244,-0.2281,-0.2284,-0.2287,-0.2315,-0.2321,-0.2326,0,0,0,0,0,-0.2147,-0.2167,-0.2161,-0.2171,-0.222,-0.2275,-0.2282,-0.2297,-0.2287,-0.2302,-0.2292,-0.2274,-0.2279,-0.2263,-0.2261,-0.2277,-0.228,-0.2283,-0.2286,-0.2313,-0.232,-0.2326,0,0,0,0,0,0,-0.2131,-0.217,-0.2165,-0.2196,-0.2232,-0.2276,-0.2295,-0.2303,-0.2309,-0.2302,-0.2285,-0.2282,-0.2292,-0.2285,-0.2269,-0.23,-0.2279,-0.2282,-0.23,-0.2307,-0.2312,-0.2322,-0.2243,0,0,0,0,0,-0.2125,-0.2141,-0.2186,-0.2208,-0.2228,-0.2257,-0.2278,-0.2294,-0.2312,-0.2314,-0.2311,-0.2307,-0.2306,-0.2305,-0.2306,-0.2319,-0.2312,-0.2333,-0.2338,-0.2342,-0.2352,-0.2353,-0.2359,-0.2298,-0.2298,-0.2298,0,0,-0.2127,-0.2148,-0.2158,-0.2204,-0.2229,-0.2279,-0.2268,-0.2311,-0.2341,-0.2308,-0.2335,-0.2322,-0.2314,-0.2329,-0.2334,-0.2323,-0.2357,-0.2346,-0.235,-0.2357,-0.2357,-0.2363,-0.2368,-0.2301,-0.23,-0.23,0,0,-0.2152,-0.2157,-0.2184,-0.2223,-0.2269,-0.2293,-0.2307,-0.2354,-0.2359,-0.2387,-0.2368,-0.2366,-0.2375,-0.2371,-0.2368,-0.2406,-0.2384,-0.2409,-0.2442,-0.2444,-0.2448,-0.2452,-0.245,-0.2454,-0.2412,-0.2412,-0.2412,0,-0.2151,-0.219,-0.2203,-0.2252,-0.2292,-0.2303,-0.2359,-0.2373,-0.2411,-0.2419,-0.2402,-0.2414,-0.2398,-0.2412,-0.2422,-0.2416,-0.2412,-0.2413,-0.2449,-0.2452,-0.2456,-0.2453,-0.2456,-0.2414,-0.2414,-0.2414,-0.2414,0,-0.2201,-0.2241,-0.2269,-0.2324,-0.2368,-0.2418,-0.2453,-0.2476,-0.2477,-0.2489,-0.2501,-0.2477,-0.2485,-0.2479,-0.2458,-0.248,-0.2467,-0.2451,-0.2427,-0.2464,-0.2459,-0.2461,-0.2417,-0.2416,-0.2416,-0.2415,0,0,-0.2165,-0.2282,-0.2283,-0.2336,-0.2412,-0.2456,-0.2504,-0.2551,-0.2578,-0.2579,-0.2608,-0.259,-0.2567,-0.2564,-0.2534,-0.2528,-0.2539,-0.2502,-0.2501,-0.2492,-0.2541,-0.247,-0.2466,-0.2525,-0.2526,-0.2527,-0.2527,0,-0.2194,-0.2293,-0.2347,-0.2446,-0.2506,-0.2553,-0.2604,-0.2643,-0.2653,-0.2679,-0.2642,-0.2651,-0.2601,-0.2596,-0.2585,-0.2547,-0.2549,-0.254,-0.2516,-0.2516,-0.244,-0.2467,-0.2372,-0.2359,-0.253,-0.253,-0.2531,0,-0.2204,-0.2276,-0.2371,-0.2517,-0.2547,-0.2604,-0.268,-0.2733,-0.2764,-0.277,-0.2764,-0.2739,-0.2718,-0.2674,-0.2632,-0.2627,-0.2597,-0.2565,-0.2565,-0.249,-0.2449,-0.2352,-0.2357,-0.2338,-0.2535,-0.2534,-0.2534,0,-0.214,-0.229,-0.236,-0.2409,-0.2562,-0.2607,-0.2681,-0.2742,-0.2778,-0.2811,-0.2821,-0.2808,-0.2781,-0.2746,-0.2665,-0.2656,-0.262,-0.2601,-0.2515,-0.2509,-0.242,-0.2404,-0.2395,-0.2597,-0.2597,-0.2597,-0.2597,0,-0.2138,-0.2201,-0.2334,-0.2376,-0.2474,-0.2589,-0.2672,-0.2735,-0.2803,-0.2825,-0.2846,-0.283,-0.2796,-0.2759,-0.2701,-0.2604,-0.2647,-0.2527,-0.2506,-0.2428,-0.2414,-0.2385,-0.2393,-0.2597,-0.2597,-0.2597,-0.2597,0,-0.2066,-0.2147,-0.2243,-0.2395,-0.2443,-0.2504,-0.2666,-0.2716,-0.2788,-0.2812,-0.2816,-0.2841,-0.2783,-0.2747,-0.2689,-0.2631,-0.2513,-0.2527,-0.2433,-0.24,-0.2284,-0.2297,-0.2251,-0.2197,-0.2434,-0.2432,-0.243,0,-0.2046,-0.2075,-0.2218,-0.2256,-0.2326,-0.2441,-0.2514,-0.2664,-0.2706,-0.2783,-0.2771,-0.2764,-0.2705,-0.2621,-0.2538,-0.2454,-0.2436,-0.2332,-0.2295,-0.227,-0.227,-0.2268,-0.2227,-0.2195,-0.2191,-0.2189,-0.2186,0,-0.1997,-0.202,-0.2089,-0.2165,-0.2239,-0.2341,-0.2452,-0.248,-0.2615,-0.2621,-0.2595,-0.2567,-0.2538,-0.241,-0.2355,-0.2284,-0.2268,-0.2272,-0.2273,-0.2106,-0.2078,-0.2017,-0.2211,-0.2162,-0.2165,-0.2167,-0.2168,-0.2169,-0.1922,-0.1941,-0.1991,-0.2064,-0.214,-0.2175,-0.2191,-0.2275,-0.2289,-0.2265,-0.2354,-0.2289,-0.2295,-0.2186,-0.2146,-0.2052,-0.2079,-0.1977,-0.2003,-0.2011,-0.1931,-0.2068,-0.1976,-0.1977,-0.1978,-0.1979,-0.198,0,-0.1824,-0.1844,-0.1895,-0.1951,-0.1965,-0.2047,-0.2096,-0.2053,-0.1977,-0.203,-0.1986,-0.199,-0.1916,-0.1956,-0.1901,-0.1821,-0.1786,-0.1768,-0.1759,-0.1735,-0.1873,-0.1832,-0.167,-0.167,-0.167,-0.167,-0.167,-0.1671,-0.1764,-0.1753,-0.1781,-0.1747,-0.1773,-0.1716,-0.1687,-0.1618,-0.162,-0.1551,-0.1595,-0.1693,-0.1766,-0.1879,-0.1807,-0.1725,-0.1679,-0.1596,-0.1632,-0.1752,-0.1774,-0.1796,-0.1759,-0.1585,-0.1585,-0.1432,-0.1431,-0.143]},{"header":{"parameterUnit":"m.s-1","parameterCategory":2,"la1":30.2991,"la2":30.254,"lo1":-89.0895,"lo2":-89.0444,"dy":0.0017,"dx":0.0017,"nx":28,"ny":28,"refTime":"2024-05-30T03:00:00:Z","depth":"0","parameterNumber":3,"parameterNumberName":"V-component_of_CURRENTS"},"data":[0,0,0,0,0,0,0,0,0,0,0,0,0,0,0,0,0,0,0,0,0,0,0,0,0,0,0,0,0,0,0,0,0,0,0,0,0,0,0,0,0,0,0,0,0,0,0,0,0,0,0,0,0,0,0,0,0,0,-0.0164,-0.0162,0,-0.0025,-0.0023,-0.0022,0.0028,0.0028,0.0028,0.0027,0.0137,0.014,0.0143,0,0,0,0,0,0,0,0,0,0,0,0,0,-0.0258,-0.0257,-0.0164,-0.0162,-0.016,-0.0025,-0.0023,-0.0021,0.0028,0.0028,0.0028,0.0027,0.0136,0.0139,0.0143,0,0,0,0,0,0,0,0,0,0,0,0,0,-0.0179,-0.0257,-0.0164,-0.0118,-0.0113,-0.0025,-0.0023,-0.0021,0.0029,0.0028,0.0027,0.0027,0.0134,0.0139,0.0144,0.0186,0,0,0.0159,0.0161,0,0,0,0,0,0,0,0,-0.0184,-0.0176,-0.0127,-0.0121,-0.0115,-0.0015,-0.0016,0.0047,0.0029,-0.0026,0.0027,0.0027,0.0084,0.0093,0.012,0.0192,0.0196,0.0159,0.0162,0.0165,0.0166,0,0,0,0,0,0,0,-0.019,-0.0181,-0.011,-0.0125,-0.0118,-0.006,-0.0051,-0.0003,0.0029,-0.0021,-0.0017,0.0,0.0087,0.0115,0.0123,0.0198,0.0159,0.0164,0.0167,0.0169,0.0301,0.0301,0,0,0,0,0,0,-0.0211,-0.0187,-0.0114,-0.0105,-0.015,-0.0059,-0.0048,-0.0047,0.003,0.0041,0.0,0.0002,0.0107,0.0117,0.0127,0.0176,0.0164,0.0169,0.0172,0.03,0.0301,0.0302,0,0,0,0,0,0,-0.0214,-0.0206,-0.012,-0.0141,-0.0126,-0.0057,-0.0056,-0.0044,-0.0018,0.0047,0.0058,0.0014,0.0107,0.012,0.0172,0.0181,0.0171,0.0176,0.03,0.0301,0.0301,0.0279,0,0,0,0,0,0,-0.0217,-0.0209,-0.0217,-0.0143,-0.0126,-0.0073,-0.0055,-0.0041,-0.0006,-0.0003,0.0062,0.0072,0.0107,0.0165,0.0177,0.0187,0.018,0.0299,0.03,0.0301,0.0279,0.0279,0.0279,0,0,0,0,0,-0.0221,-0.0221,-0.0218,-0.0209,-0.0139,-0.0072,-0.0058,-0.0011,-0.0005,0.0009,0.0054,0.007,0.0179,0.017,0.0184,0.0196,0.0298,0.03,0.0301,0.0279,0.0279,0.0279,0,0,0,0,0,0,-0.0254,-0.0213,-0.0209,-0.0196,-0.0145,-0.0064,-0.004,-0.0013,0.0035,0.0038,0.0086,0.01,0.0147,0.0176,0.0164,0.0236,0.0238,0.0242,0.0216,0.0217,0.0217,0.0207,0.0184,0,0,0,0,0,-0.027,-0.027,-0.0211,-0.02,-0.0177,-0.0114,-0.0082,-0.0048,0.0007,0.0028,0.0074,0.0121,0.0166,0.0193,0.0237,0.0284,0.0292,0.0298,0.0298,0.0298,0.03,0.0305,0.0305,0.0306,0.0306,0.0306,0,0,-0.028,-0.0257,-0.0256,-0.0208,-0.0165,-0.0121,-0.0096,-0.0045,-0.0009,0.0033,0.0089,0.0124,0.0177,0.0227,0.025,0.0252,0.0304,0.0299,0.0299,0.0301,0.0306,0.0306,0.0305,0.0307,0.0306,0.0306,0,0,-0.0283,-0.0278,-0.0272,-0.023,-0.017,-0.0127,-0.0118,-0.0041,-0.0012,0.0049,0.0081,0.012,0.0198,0.0235,0.0263,0.029,0.03,0.03,0.0299,0.0303,0.0303,0.0303,0.0317,0.0318,0.0303,0.0303,0.0303,0,-0.0295,-0.0285,-0.0255,-0.0223,-0.0189,-0.0135,-0.0101,-0.0054,0.0029,0.0051,0.0061,0.0161,0.0203,0.0257,0.0268,0.029,0.0293,0.0293,0.0301,0.0301,0.0301,0.0316,0.0317,0.0302,0.0302,0.0302,0.0302,0,-0.0287,-0.0271,-0.0255,-0.0213,-0.017,-0.013,-0.0063,-0.0025,0.0011,0.0055,0.011,0.0167,0.022,0.0239,0.0269,0.0294,0.0297,0.0295,0.0296,0.0299,0.0315,0.0317,0.03,0.0301,0.0301,0.0301,0,0,-0.0334,-0.0268,-0.0266,-0.0248,-0.0164,-0.0131,-0.0069,-0.0007,0.0017,0.0085,0.0116,0.0195,0.0209,0.0242,0.0274,0.0288,0.0297,0.0291,0.0292,0.0297,0.0309,0.0357,0.0363,0.0288,0.0288,0.0288,0.0321,0,-0.0339,-0.0309,-0.0259,-0.0215,-0.0193,-0.0119,-0.0071,-0.0008,0.0042,0.0085,0.0139,0.018,0.0215,0.0229,0.0252,0.0286,0.03,0.0288,0.0314,0.0315,0.0349,0.0367,0.0379,0.0414,0.0323,0.0324,0.0324,0,-0.0357,-0.0334,-0.031,-0.0238,-0.0219,-0.0182,-0.0117,-0.0061,0.0017,0.0054,0.0106,0.0148,0.0201,0.021,0.0274,0.0261,0.0284,0.0306,0.0307,0.0361,0.0366,0.0397,0.0421,0.0534,0.0327,0.0327,0.0326,0,-0.0443,-0.037,-0.0366,-0.0339,-0.0248,-0.0224,-0.0171,-0.0088,-0.0054,0.002,0.0039,0.0117,0.0143,0.0188,0.0267,0.0257,0.0324,0.0313,0.0379,0.0382,0.0405,0.0411,0.0534,0.0338,0.0338,0.0338,0.0338,0,-0.0487,-0.0473,-0.0414,-0.0411,-0.0398,-0.03,-0.0273,-0.021,-0.0131,-0.0104,-0.0001,0.0028,0.0132,0.0197,0.0255,0.0342,0.0318,0.0387,0.0396,0.04,0.0405,0.0514,0.0561,0.0339,0.0339,0.0338,0.0338,0,-0.058,-0.054,-0.0532,-0.0464,-0.0446,-0.0444,-0.0351,-0.0328,-0.0239,-0.0203,-0.0185,-0.0051,0.0049,0.0168,0.0257,0.0326,0.0468,0.043,0.0443,0.0454,0.0619,0.0662,0.0791,0.0833,0.0501,0.0503,0.0504,0,-0.0621,-0.0636,-0.061,-0.0621,-0.0594,-0.0562,-0.0538,-0.0419,-0.0387,-0.0255,-0.0254,-0.0124,-0.0035,0.0157,0.0313,0.045,0.052,0.0536,0.0526,0.0647,0.0701,0.0732,0.0759,0.0545,0.0547,0.0548,0.0549,0,-0.0698,-0.0705,-0.0707,-0.0747,-0.0743,-0.0711,-0.0661,-0.0651,-0.0509,-0.0453,-0.036,-0.0272,-0.004,0.0166,0.0392,0.0462,0.0628,0.0564,0.0678,0.0748,0.0799,0.0837,0.0512,0.0559,0.0558,0.0557,0.0557,0.0556,-0.0762,-0.08,-0.0828,-0.0857,-0.0858,-0.0846,-0.0821,-0.0757,-0.0697,-0.0577,-0.0475,-0.031,0.0048,0.0379,0.0485,0.075,0.071,0.0805,0.0847,0.0867,0.0921,0.0636,0.0702,0.0702,0.0702,0.0702,0.0702,0,-0.0828,-0.0867,-0.092,-0.0945,-0.0966,-0.0931,-0.0885,-0.0836,-0.0771,-0.0642,-0.0524,-0.0139,0.0193,0.0515,0.0914,0.1039,0.104,0.1095,0.1135,0.1145,0.0883,0.09,0.1027,0.1027,0.1027,0.1026,0.1026,0.1026,-0.0863,-0.094,-0.0969,-0.103,-0.1037,-0.1017,-0.0985,-0.091,-0.0797,-0.0574,-0.0349,-0.0173,0.0321,0.1001,0.1347,0.1347,0.1443,0.1425,0.1482,0.1305,0.1281,0.1258,0.1287,0.1492,0.1493,0.1716,0.1718,0.172]}],[{"header":{"parameterUnit":"m.s-1","parameterCategory":2,"la1":30.2991,"la2":30.254,"lo1":-89.0895,"lo2":-89.0444,"dy":0.0017,"dx":0.0017,"nx":28,"ny":28,"refTime":"2024-05-30T03:00:00:Z","depth":"2","parameterNumber":2,"parameterNumberName":"U-component_of_CURRENTS"},"data":[0,0,0,0,0,0,0,0,0,0,0,0,0,0,0,0,0,0,0,0,0,0,0,0,0,0,0,0,0,0,0,0,0,0,0,0,0,0,0,0,0,0,0,0,0,0,0,0,0,0,0,0,0,0,0,0,0,0,-0.1849,-0.1849,0,-0.1918,-0.1919,-0.192,-0.195,-0.195,-0.195,-0.195,-0.1923,-0.1922,-0.1921,0,0,0,0,0,0,0,0,0,0,0,0,0,-0.1722,-0.1725,-0.1848,-0.1849,-0.185,-0.1918,-0.1919,-0.192,-0.195,-0.195,-0.195,-0.195,-0.1923,-0.1922,-0.1921,0,0,0,0,0,0,0,0,0,0,0,0,0,-0.1782,-0.1725,-0.1848,-0.1874,-0.1877,-0.1918,-0.1919,-0.192,-0.195,-0.195,-0.195,-0.195,-0.1923,-0.1922,-0.1921,-0.1915,0,0,-0.1918,-0.1917,0,0,0,0,0,0,0,0,-0.1779,-0.1787,-0.1869,-0.1873,-0.1876,-0.1926,-0.1865,-0.1914,-0.195,-0.1922,-0.195,-0.195,-0.1915,-0.1915,-0.1928,-0.1914,-0.1913,-0.1918,-0.1917,-0.1917,-0.1916,0,0,0,0,0,0,0,-0.1775,-0.1784,-0.1875,-0.187,-0.1875,-0.1876,-0.1885,-0.1875,-0.1915,-0.1924,-0.1927,-0.1936,-0.1916,-0.1929,-0.1928,-0.1912,-0.1918,-0.1917,-0.1916,-0.1916,-0.1932,-0.1933,0,0,0,0,0,0,-0.177,-0.178,-0.1873,-0.1877,-0.1827,-0.1879,-0.1888,-0.1909,-0.1918,-0.192,-0.1936,-0.1937,-0.1931,-0.1929,-0.1927,-0.1951,-0.1917,-0.1916,-0.1915,-0.1931,-0.1932,-0.1934,0,0,0,0,0,0,-0.1767,-0.1778,-0.187,-0.183,-0.1842,-0.1881,-0.1905,-0.1911,-0.1927,-0.1928,-0.1928,-0.1945,-0.1931,-0.1928,-0.1925,-0.1948,-0.1915,-0.1914,-0.193,-0.1932,-0.1933,-0.1978,0,0,0,0,0,0,-0.1763,-0.1776,-0.1794,-0.183,-0.1844,-0.1914,-0.1905,-0.1912,-0.1933,-0.1935,-0.1936,-0.1934,-0.1931,-0.1927,-0.1924,-0.1946,-0.1913,-0.1929,-0.1931,-0.1933,-0.1976,-0.1981,-0.1986,0,0,0,0,0,-0.1758,-0.1787,-0.1794,-0.1806,-0.1866,-0.1916,-0.1924,-0.1949,-0.1933,-0.1958,-0.1945,-0.1934,-0.1939,-0.1927,-0.1923,-0.1945,-0.1928,-0.193,-0.1932,-0.1973,-0.198,-0.1986,0,0,0,0,0,0,-0.1753,-0.1794,-0.1803,-0.1846,-0.1884,-0.1921,-0.1945,-0.1948,-0.1959,-0.196,-0.1938,-0.1936,-0.1946,-0.1936,-0.1924,-0.1958,-0.1935,-0.1937,-0.1967,-0.1973,-0.1979,-0.1967,-0.1912,0,0,0,0,0,-0.1756,-0.179,-0.1826,-0.1868,-0.188,-0.1907,-0.1927,-0.1952,-0.1965,-0.1971,-0.1968,-0.1962,-0.1954,-0.1955,-0.1957,-0.1965,-0.1962,-0.1981,-0.1986,-0.1991,-0.1981,-0.2028,-0.2037,-0.1942,-0.1942,-0.1941,0,0,-0.1767,-0.1796,-0.1816,-0.1869,-0.1894,-0.1929,-0.192,-0.1969,-0.1983,-0.1963,-0.1979,-0.1979,-0.196,-0.198,-0.1984,-0.1974,-0.2013,-0.1994,-0.1998,-0.1985,-0.2032,-0.2041,-0.2049,-0.1943,-0.1943,-0.1943,0,0,-0.1801,-0.1829,-0.1858,-0.1893,-0.1943,-0.1961,-0.1971,-0.2012,-0.2013,-0.203,-0.2017,-0.2026,-0.2021,-0.2022,-0.2012,-0.2043,-0.2039,-0.2054,-0.2072,-0.2119,-0.2128,-0.2135,-0.2125,-0.2131,-0.2059,-0.2059,-0.2059,0,-0.1807,-0.1856,-0.1878,-0.1917,-0.1953,-0.1969,-0.2013,-0.2012,-0.205,-0.2053,-0.2043,-0.2056,-0.2037,-0.2047,-0.2055,-0.2054,-0.2067,-0.2048,-0.2127,-0.2134,-0.2141,-0.2129,-0.2135,-0.2061,-0.2061,-0.2061,-0.2061,0,-0.1858,-0.1901,-0.1924,-0.1973,-0.2018,-0.2066,-0.2078,-0.2093,-0.2088,-0.2101,-0.2118,-0.2105,-0.212,-0.2116,-0.2081,-0.2124,-0.2111,-0.2128,-0.211,-0.2153,-0.2138,-0.2143,-0.2065,-0.2064,-0.2063,-0.2063,0,0,-0.1833,-0.1938,-0.1938,-0.1981,-0.2056,-0.2094,-0.2111,-0.2139,-0.2149,-0.2165,-0.2194,-0.2163,-0.2181,-0.2169,-0.2156,-0.2172,-0.2208,-0.2167,-0.2168,-0.2154,-0.2285,-0.2191,-0.2187,-0.2258,-0.226,-0.2261,-0.2248,0,-0.1853,-0.1928,-0.1989,-0.2068,-0.2104,-0.215,-0.2168,-0.2201,-0.2212,-0.2244,-0.2223,-0.2248,-0.2192,-0.2215,-0.2225,-0.2219,-0.2229,-0.2207,-0.2246,-0.2245,-0.2157,-0.2193,-0.2038,-0.2008,-0.2253,-0.2254,-0.2255,0,-0.1855,-0.191,-0.1988,-0.2105,-0.2127,-0.2182,-0.2238,-0.2266,-0.2297,-0.2312,-0.2344,-0.2348,-0.235,-0.2319,-0.2315,-0.2313,-0.2296,-0.228,-0.2281,-0.2179,-0.2163,-0.2009,-0.2009,-0.2264,-0.2263,-0.2262,-0.2262,0,-0.1793,-0.1905,-0.1967,-0.2009,-0.2131,-0.2174,-0.2233,-0.2284,-0.2298,-0.237,-0.2408,-0.2433,-0.2443,-0.2442,-0.2369,-0.2372,-0.2367,-0.2381,-0.2271,-0.2263,-0.2125,-0.2102,-0.2396,-0.2396,-0.2396,-0.2396,-0.2396,0,-0.1783,-0.1825,-0.1939,-0.1982,-0.2047,-0.2155,-0.2226,-0.2273,-0.2349,-0.2379,-0.2445,-0.2448,-0.248,-0.2467,-0.2417,-0.2335,-0.2409,-0.2264,-0.2263,-0.2133,-0.2111,-0.2332,-0.2325,-0.2396,-0.2396,-0.2396,-0.2396,0,-0.1712,-0.1782,-0.1855,-0.1987,-0.2025,-0.207,-0.221,-0.2241,-0.2333,-0.2382,-0.2407,-0.2466,-0.2446,-0.2439,-0.2427,-0.2374,-0.2324,-0.2279,-0.2087,-0.2062,-0.2176,-0.2172,-0.2179,-0.2176,-0.2173,-0.2171,-0.2169,0,-0.169,-0.1715,-0.1837,-0.1859,-0.1927,-0.2012,-0.2057,-0.2193,-0.2237,-0.2345,-0.2352,-0.2384,-0.2341,-0.2292,-0.224,-0.2171,-0.2226,-0.1989,-0.1963,-0.216,-0.2159,-0.2159,-0.2158,-0.1791,-0.1786,-0.1782,-0.1779,0,-0.1634,-0.1666,-0.1725,-0.1775,-0.1831,-0.1899,-0.1995,-0.2014,-0.2152,-0.2179,-0.2183,-0.2166,-0.2167,-0.203,-0.1987,-0.1917,-0.1995,-0.1905,-0.2193,-0.1866,-0.1793,-0.1792,-0.1805,-0.1743,-0.1747,-0.1749,-0.1751,-0.1753,-0.1564,-0.1578,-0.1635,-0.1675,-0.173,-0.1756,-0.1759,-0.1841,-0.1855,-0.1878,-0.1948,-0.189,-0.1919,-0.1758,-0.1675,-0.1637,-0.1761,-0.1688,-0.1701,-0.1718,-0.1673,-0.1599,-0.1501,-0.1503,-0.1504,-0.1506,-0.1507,0,-0.1465,-0.1489,-0.1525,-0.1563,-0.1562,-0.1644,-0.1681,-0.1641,-0.1588,-0.1651,-0.1629,-0.1479,-0.141,-0.1446,-0.1346,-0.1331,-0.1333,-0.1266,-0.1274,-0.1309,-0.134,-0.1277,-0.0999,-0.0997,-0.0996,-0.0995,0,0,-0.1402,-0.139,-0.1416,-0.1372,-0.1398,-0.1354,-0.1334,-0.1281,-0.129,-0.1207,-0.1199,-0.1322,-0.1392,-0.1192,-0.1152,-0.1062,-0.1171,-0.1009,-0.1415,-0.1457,-0.1487,-0.1577,-0.1518,0,0,0,0,0]},{"header":{"parameterUnit":"m.s-1","parameterCategory":2,"la1":30.2991,"la2":30.254,"lo1":-89.0895,"lo2":-89.0444,"dy":0.0017,"dx":0.0017,"nx":28,"ny":28,"refTime":"2024-05-30T03:00:00:Z","depth":"2","parameterNumber":3,"parameterNumberName":"V-component_of_CURRENTS"},"data":[0,0,0,0,0,0,0,0,0,0,0,0,0,0,0,0,0,0,0,0,0,0,0,0,0,0,0,0,0,0,0,0,0,0,0,0,0,0,0,0,0,0,0,0,0,0,0,0,0,0,0,0,0,0,0,0,0,0,-0.024,-0.0239,0,-0.0125,-0.0123,-0.0122,-0.0064,-0.0064,-0.0064,-0.0064,0.0053,0.0056,0.0059,0,0,0,0,0,0,0,0,0,0,0,0,0,-0.0289,-0.0289,-0.024,-0.0239,-0.0238,-0.0125,-0.0123,-0.0122,-0.0064,-0.0064,-0.0064,-0.0064,0.0052,0.0055,0.0059,0,0,0,0,0,0,0,0,0,0,0,0,0,-0.0229,-0.0289,-0.024,-0.0196,-0.0192,-0.0126,-0.0123,-0.0121,-0.0064,-0.0064,-0.0064,-0.0064,0.005,0.0055,0.006,0.0093,0,0,0.0074,0.0077,0,0,0,0,0,0,0,0,-0.0232,-0.0227,-0.0204,-0.0199,-0.0194,-0.011,-0.0098,-0.005,-0.0064,-0.011,-0.0064,-0.0064,-0.0003,0.0006,0.0031,0.0099,0.0104,0.0075,0.0078,0.008,0.0081,0,0,0,0,0,0,0,-0.0237,-0.0231,-0.0193,-0.0203,-0.0197,-0.0141,-0.0134,-0.0088,-0.0056,-0.0106,-0.0102,-0.0092,0.0,0.0026,0.0034,0.0105,0.0075,0.0079,0.0082,0.0084,0.0215,0.0215,0,0,0,0,0,0,-0.0261,-0.0235,-0.0196,-0.019,-0.0216,-0.0141,-0.0132,-0.0136,-0.0056,-0.0044,-0.0092,-0.009,0.0018,0.0028,0.0038,0.0092,0.008,0.0084,0.0087,0.0214,0.0215,0.0216,0,0,0,0,0,0,-0.0262,-0.0259,-0.0201,-0.021,-0.0199,-0.0141,-0.0144,-0.0133,-0.0106,-0.0045,-0.0034,-0.0076,0.0018,0.0032,0.0084,0.0096,0.0087,0.0091,0.0214,0.0215,0.0215,0.0193,0,0,0,0,0,0,-0.0265,-0.0261,-0.0269,-0.0213,-0.02,-0.0161,-0.0144,-0.0131,-0.01,-0.0096,-0.0028,-0.0017,0.0019,0.0077,0.0089,0.0103,0.0095,0.0213,0.0214,0.0215,0.0193,0.0193,0.0193,0,0,0,0,0,-0.0267,-0.027,-0.027,-0.0265,-0.0215,-0.0161,-0.0148,-0.0105,-0.01,-0.0083,-0.0038,-0.0019,0.0092,0.0082,0.0096,0.0111,0.0212,0.0214,0.0215,0.0193,0.0193,0.0193,0,0,0,0,0,0,-0.0286,-0.0264,-0.0262,-0.0258,-0.0217,-0.0152,-0.0132,-0.0108,-0.0058,-0.0054,-0.0005,0.0009,0.0058,0.0088,0.0075,0.0151,0.0153,0.0157,0.0131,0.0132,0.0132,0.0119,0.0099,0,0,0,0,0,-0.03,-0.0306,-0.0263,-0.026,-0.0243,-0.0192,-0.0166,-0.0134,-0.0084,-0.0063,-0.0017,0.0031,0.0076,0.0104,0.015,0.0196,0.0206,0.0213,0.0212,0.0212,0.0211,0.0227,0.0228,0.022,0.022,0.022,0,0,-0.0309,-0.0296,-0.0299,-0.0266,-0.0233,-0.0198,-0.0175,-0.0133,-0.0104,-0.0058,-0.0006,0.0034,0.0087,0.0139,0.0163,0.0165,0.0221,0.0214,0.0213,0.0213,0.0229,0.0229,0.023,0.0221,0.0221,0.0221,0,0,-0.0316,-0.0316,-0.0317,-0.0283,-0.0237,-0.0201,-0.0193,-0.0129,-0.0102,-0.0048,-0.0012,0.0033,0.0107,0.0148,0.0176,0.0203,0.0218,0.0216,0.0211,0.0227,0.0227,0.0227,0.024,0.0242,0.0218,0.0218,0.0218,0,-0.0324,-0.0326,-0.0303,-0.0281,-0.0254,-0.0207,-0.0181,-0.0142,-0.0068,-0.0046,-0.0036,0.0068,0.0111,0.0169,0.018,0.0203,0.021,0.0206,0.0225,0.0226,0.0226,0.0239,0.0241,0.0217,0.0217,0.0217,0.0217,0,-0.0325,-0.0319,-0.0309,-0.0279,-0.0241,-0.0211,-0.0156,-0.0122,-0.009,-0.0049,0.001,0.007,0.0129,0.015,0.0177,0.0211,0.0213,0.0218,0.022,0.0225,0.0239,0.0242,0.0216,0.0216,0.0216,0.0217,0,0,-0.0365,-0.0324,-0.0322,-0.0312,-0.0239,-0.0213,-0.0164,-0.011,-0.0091,-0.0024,0.0009,0.0089,0.0115,0.0148,0.0186,0.0205,0.022,0.0213,0.0214,0.0216,0.0249,0.0277,0.0283,0.0223,0.0224,0.0224,0.0255,0,-0.0375,-0.0363,-0.0321,-0.0291,-0.0279,-0.0213,-0.0176,-0.0119,-0.0071,-0.0027,0.0034,0.0081,0.0116,0.0139,0.0167,0.0211,0.0226,0.0211,0.0251,0.0252,0.0269,0.0287,0.027,0.0298,0.0257,0.0258,0.0258,0,-0.0396,-0.0386,-0.0374,-0.0323,-0.0309,-0.0278,-0.0222,-0.0176,-0.0097,-0.0061,0.0003,0.0054,0.0118,0.0128,0.0203,0.0189,0.0215,0.024,0.0242,0.0278,0.0286,0.0288,0.0305,0.0263,0.0262,0.0262,0.0262,0,-0.0471,-0.0421,-0.0427,-0.0406,-0.0337,-0.0319,-0.0274,-0.0197,-0.0171,-0.0085,-0.0062,0.003,0.0066,0.0119,0.0199,0.0193,0.0266,0.0263,0.0311,0.0313,0.0313,0.0315,0.0294,0.0294,0.0294,0.0293,0.0293,0,-0.0515,-0.051,-0.047,-0.0474,-0.0472,-0.0386,-0.0367,-0.0312,-0.0237,-0.0208,-0.0094,-0.0062,0.006,0.013,0.019,0.0273,0.0262,0.0315,0.0327,0.0306,0.0307,0.0287,0.0286,0.0295,0.0294,0.0294,0.0294,0,-0.0597,-0.057,-0.0575,-0.0528,-0.0515,-0.0516,-0.0444,-0.0427,-0.0341,-0.03,-0.0276,-0.014,-0.0034,0.0091,0.019,0.0257,0.0333,0.0356,0.0331,0.0339,0.0367,0.0364,0.0409,0.041,0.0411,0.0412,0.0413,0,-0.0634,-0.0655,-0.0646,-0.0662,-0.0645,-0.0624,-0.0609,-0.0508,-0.0478,-0.0355,-0.0346,-0.0216,-0.012,0.0069,0.0219,0.0354,0.0347,0.0405,0.0395,0.0374,0.038,0.0376,0.0372,0.0383,0.0383,0.0383,0.0384,0,-0.0704,-0.0714,-0.0726,-0.0774,-0.0777,-0.0759,-0.0721,-0.0716,-0.0587,-0.0528,-0.043,-0.034,-0.0124,0.006,0.0265,0.033,0.0393,0.0417,0.0403,0.0361,0.0354,0.0358,0.0355,0.0387,0.0387,0.0387,0.0386,0.0386,-0.0757,-0.0797,-0.0831,-0.0869,-0.088,-0.0876,-0.0854,-0.0795,-0.0736,-0.0607,-0.0518,-0.0347,-0.0145,0.0153,0.0295,0.0432,0.0418,0.0448,0.0444,0.0441,0.0438,0.0434,0.0481,0.0481,0.0481,0.0481,0.0482,0,-0.0812,-0.0857,-0.0913,-0.0945,-0.0969,-0.0946,-0.0908,-0.0854,-0.0775,-0.0648,-0.052,-0.0294,-0.007,0.0131,0.0357,0.0485,0.0465,0.0496,0.0453,0.0449,0.0445,0.0441,0.0486,0.0486,0.0486,0.0487,0,0,-0.084,-0.0917,-0.0949,-0.1009,-0.1023,-0.1002,-0.0973,-0.0885,-0.0774,-0.0633,-0.0491,-0.031,-0.0058,0.0107,0.0277,0.0394,0.0379,0.0392,0.0374,0.03,0.0295,0.0404,0.0391,0,0,0,0,0]}],[{"header":{"parameterUnit":"m.s-1","parameterCategory":2,"la1":30.2991,"la2":30.254,"lo1":-89.0895,"lo2":-89.0444,"dy":0.0017,"dx":0.0017,"nx":28,"ny":28,"refTime":"2024-05-30T03:00:00:Z","depth":"4","parameterNumber":2,"parameterNumberName":"U-component_of_CURRENTS"},"data":[0,0,0,0,0,0,0,0,0,0,0,0,0,0,0,0,0,0,0,0,0,0,0,0,0,0,0,0,0,0,0,0,0,0,0,0,0,0,0,0,0,0,0,0,0,0,0,0,0,0,0,0,0,0,0,0,0,0,-0.0343,-0.0343,0,-0.0391,-0.0392,-0.0393,-0.0445,-0.0446,-0.0446,-0.0447,-0.0463,-0.0462,-0.0462,0,0,0,0,0,0,0,0,0,0,0,0,0,-0.0514,-0.0509,-0.0343,-0.0343,-0.0344,-0.0391,-0.0392,-0.0393,-0.0445,-0.0446,-0.0447,-0.0447,-0.0463,-0.0462,-0.0462,0,0,0,0,0,0,0,0,0,0,0,0,0,-0.0489,-0.0507,-0.0343,-0.0375,-0.0378,-0.0391,-0.0392,-0.0393,-0.0445,-0.0446,-0.0447,-0.0448,-0.0463,-0.0462,-0.0462,-0.0442,0,0,-0.0461,-0.0461,0,0,0,0,0,0,0,0,-0.049,-0.0483,-0.037,-0.0372,-0.0376,-0.0412,-0.0458,-0.0407,-0.0445,-0.0421,-0.0447,-0.0448,-0.0441,-0.0442,-0.0452,-0.0442,-0.0443,-0.0461,-0.0461,-0.0461,-0.0461,0,0,0,0,0,0,0,-0.0492,-0.0482,-0.0364,-0.037,-0.0374,-0.0461,-0.0457,-0.045,-0.0425,-0.0423,-0.0427,-0.0429,-0.0443,-0.0452,-0.0453,-0.0443,-0.0461,-0.0461,-0.0461,-0.0461,-0.0497,-0.0498,0,0,0,0,0,0,-0.0469,-0.0482,-0.0362,-0.0365,-0.0435,-0.0456,-0.0452,-0.0401,-0.0426,-0.0431,-0.0429,-0.0432,-0.0452,-0.0453,-0.0453,-0.0508,-0.0461,-0.0461,-0.0461,-0.0496,-0.0497,-0.0499,0,0,0,0,0,0,-0.0472,-0.0456,-0.036,-0.0428,-0.0422,-0.045,-0.0394,-0.0401,-0.0441,-0.0431,-0.0435,-0.0464,-0.0453,-0.0454,-0.0481,-0.0506,-0.0461,-0.046,-0.0495,-0.0497,-0.0498,-0.0568,0,0,0,0,0,0,-0.0475,-0.0455,-0.0459,-0.0424,-0.0417,-0.0386,-0.0393,-0.0401,-0.0438,-0.0444,-0.0462,-0.0463,-0.0454,-0.0482,-0.0481,-0.0505,-0.046,-0.0493,-0.0496,-0.0498,-0.0564,-0.0572,-0.0578,0,0,0,0,0,-0.048,-0.0479,-0.0456,-0.0446,-0.0401,-0.0386,-0.0392,-0.042,-0.0439,-0.0459,-0.0479,-0.0464,-0.0494,-0.0483,-0.0481,-0.0506,-0.0492,-0.0495,-0.0497,-0.0561,-0.057,-0.0578,0,0,0,0,0,0,-0.0568,-0.0482,-0.0458,-0.0432,-0.0415,-0.0395,-0.041,-0.0436,-0.0469,-0.0481,-0.0479,-0.0481,-0.0513,-0.0499,-0.0487,-0.0522,-0.049,-0.0492,-0.0539,-0.0547,-0.0554,-0.0555,-0.046,0,0,0,0,0,-0.0577,-0.0538,-0.0482,-0.0462,-0.0432,-0.0424,-0.0439,-0.0457,-0.0462,-0.048,-0.0495,-0.0507,-0.0516,-0.0526,-0.0528,-0.0548,-0.0563,-0.0562,-0.0569,-0.0575,-0.0575,-0.0635,-0.0648,-0.0507,-0.0507,-0.0507,0,0,-0.0601,-0.0554,-0.0533,-0.0479,-0.0443,-0.0433,-0.0434,-0.0443,-0.048,-0.0472,-0.0526,-0.0532,-0.0527,-0.0554,-0.0566,-0.0551,-0.0627,-0.0578,-0.0584,-0.058,-0.0639,-0.0653,-0.0665,-0.0509,-0.0508,-0.0508,0,0,-0.0623,-0.0565,-0.0537,-0.0503,-0.0471,-0.0475,-0.0481,-0.0474,-0.0506,-0.0546,-0.0558,-0.0586,-0.0594,-0.0609,-0.0611,-0.0656,-0.0662,-0.0656,-0.0694,-0.0753,-0.0766,-0.0777,-0.0832,-0.0847,-0.0661,-0.0661,-0.0661,0,-0.0675,-0.0612,-0.0542,-0.05,-0.0483,-0.0488,-0.0476,-0.0509,-0.0545,-0.0576,-0.057,-0.0625,-0.0618,-0.0667,-0.0678,-0.0673,-0.0708,-0.0664,-0.0764,-0.0775,-0.0785,-0.0839,-0.0855,-0.0664,-0.0664,-0.0664,-0.0663,0,-0.0656,-0.0622,-0.0591,-0.0528,-0.0507,-0.0506,-0.0494,-0.0542,-0.0581,-0.0621,-0.0684,-0.0689,-0.0724,-0.0726,-0.0709,-0.0782,-0.0786,-0.0769,-0.0746,-0.0804,-0.0857,-0.0872,-0.067,-0.0668,-0.0667,-0.0666,0,0,-0.0711,-0.0615,-0.0603,-0.058,-0.0527,-0.0513,-0.0545,-0.059,-0.0635,-0.0697,-0.0775,-0.0783,-0.0808,-0.0811,-0.0815,-0.0855,-0.0951,-0.0842,-0.0844,-0.0903,-0.1095,-0.0986,-0.0992,-0.0963,-0.0966,-0.0968,-0.111,0,-0.0731,-0.0696,-0.0635,-0.062,-0.0582,-0.0565,-0.0615,-0.0657,-0.067,-0.076,-0.0817,-0.0888,-0.0838,-0.0875,-0.0905,-0.0946,-0.0993,-0.0914,-0.1024,-0.1027,-0.0927,-0.1006,-0.0976,-0.1121,-0.1125,-0.1128,-0.1129,0,-0.0704,-0.07,-0.0682,-0.0668,-0.065,-0.0676,-0.0696,-0.0744,-0.0837,-0.0862,-0.0914,-0.0953,-0.1051,-0.1002,-0.1097,-0.1057,-0.1077,-0.1097,-0.1103,-0.0982,-0.0945,-0.1046,-0.1157,-0.1155,-0.1153,-0.1151,-0.1149,0,-0.0736,-0.0713,-0.0725,-0.0699,-0.0702,-0.0727,-0.0779,-0.0799,-0.0839,-0.0949,-0.0999,-0.1082,-0.117,-0.1209,-0.1204,-0.1183,-0.1301,-0.1283,-0.1208,-0.1202,-0.1226,-0.1213,-0.1357,-0.1357,-0.1356,-0.1356,-0.1356,0,-0.0731,-0.0737,-0.0764,-0.0754,-0.0824,-0.0795,-0.0854,-0.0897,-0.0974,-0.1036,-0.1091,-0.1138,-0.1225,-0.1274,-0.127,-0.1274,-0.1357,-0.1231,-0.1235,-0.1254,-0.1241,-0.1239,-0.1223,-0.1361,-0.136,-0.1359,-0.1358,0,-0.0686,-0.0718,-0.073,-0.0786,-0.0814,-0.0858,-0.0919,-0.0956,-0.1044,-0.1117,-0.1189,-0.1253,-0.1316,-0.1347,-0.1413,-0.1355,-0.1374,-0.1349,-0.1376,-0.1376,-0.1232,-0.1219,-0.1329,-0.1327,-0.1324,-0.1322,-0.1321,0,-0.0658,-0.0662,-0.0728,-0.0758,-0.0781,-0.0856,-0.0912,-0.1001,-0.1003,-0.1143,-0.1191,-0.1301,-0.1325,-0.1355,-0.137,-0.1395,-0.1351,-0.1367,-0.1286,-0.1239,-0.1232,-0.1222,-0.1212,-0.1317,-0.1317,-0.1316,-0.1316,0,-0.0603,-0.0637,-0.0644,-0.0715,-0.0775,-0.0805,-0.0881,-0.0913,-0.1018,-0.1122,-0.1174,-0.122,-0.1286,-0.1302,-0.1318,-0.1315,-0.1366,-0.1344,-0.1348,-0.1273,-0.1226,-0.1219,-0.1212,-0.1308,-0.1309,-0.131,-0.131,0,-0.056,-0.0564,-0.0599,-0.0635,-0.0706,-0.0725,-0.0784,-0.0833,-0.0895,-0.1058,-0.1066,-0.1182,-0.1267,-0.126,-0.1266,-0.1265,-0.1251,-0.1206,-0.1218,-0.1227,-0.1116,-0.1036,-0.1082,0,0,0,0,0,-0.0505,-0.0498,-0.0526,-0.056,-0.0612,-0.0645,-0.0733,-0.0791,-0.0929,-0.0947,-0.1004,-0.1057,-0.1107,-0.1144,-0.1124,-0.1202,-0.1235,-0.117,-0.1185,-0.1265,-0.1274,-0.1146,0,0,0,0,0,0,-0.048,-0.0492,-0.0491,-0.047,-0.0476,-0.0521,-0.0577,-0.0668,-0.0674,-0.083,-0.0858,-0.0976,-0.1025,-0.11,-0.1094,-0.1107,-0.1093,-0.1238,-0.1235,-0.126,-0.1268,-0.1276,-0.1147,0,0,0,0,0]},{"header":{"parameterUnit":"m.s-1","parameterCategory":2,"la1":30.2991,"la2":30.254,"lo1":-89.0895,"lo2":-89.0444,"dy":0.0017,"dx":0.0017,"nx":28,"ny":28,"refTime":"2024-05-30T03:00:00:Z","depth":"4","parameterNumber":3,"parameterNumberName":"V-component_of_CURRENTS"},"data":[0,0,0,0,0,0,0,0,0,0,0,0,0,0,0,0,0,0,0,0,0,0,0,0,0,0,0,0,0,0,0,0,0,0,0,0,0,0,0,0,0,0,0,0,0,0,0,0,0,0,0,0,0,0,0,0,0,0,-0.0255,-0.0256,0,-0.0309,-0.031,-0.031,-0.0301,-0.0301,-0.03,-0.0299,-0.026,-0.026,-0.026,0,0,0,0,0,0,0,0,0,0,0,0,0,-0.0187,-0.0188,-0.0255,-0.0256,-0.0257,-0.0309,-0.031,-0.031,-0.0302,-0.0301,-0.03,-0.0299,-0.026,-0.026,-0.026,0,0,0,0,0,0,0,0,0,0,0,0,0,-0.0225,-0.0188,-0.0255,-0.0259,-0.026,-0.0309,-0.031,-0.031,-0.0302,-0.0301,-0.0299,-0.0298,-0.026,-0.026,-0.026,-0.0283,0,0,-0.0259,-0.0258,0,0,0,0,0,0,0,0,-0.0223,-0.0228,-0.0258,-0.0259,-0.026,-0.0298,-0.0271,-0.0297,-0.0302,-0.0285,-0.0299,-0.0298,-0.0266,-0.0265,-0.0278,-0.0281,-0.0279,-0.0259,-0.0258,-0.0258,-0.0258,0,0,0,0,0,0,0,-0.022,-0.0225,-0.0275,-0.0259,-0.026,-0.0273,-0.0277,-0.0277,-0.0279,-0.0286,-0.0286,-0.0294,-0.0266,-0.0278,-0.0277,-0.0278,-0.0259,-0.0258,-0.0258,-0.0258,-0.0243,-0.0243,0,0,0,0,0,0,-0.0215,-0.0223,-0.0274,-0.0277,-0.0239,-0.0275,-0.0279,-0.0286,-0.0281,-0.0281,-0.0295,-0.0294,-0.028,-0.0277,-0.0275,-0.0262,-0.0258,-0.0258,-0.0258,-0.0243,-0.0243,-0.0243,0,0,0,0,0,0,-0.0213,-0.0219,-0.0272,-0.0252,-0.026,-0.0278,-0.0286,-0.0288,-0.0302,-0.0289,-0.0286,-0.0306,-0.0279,-0.0276,-0.0275,-0.0262,-0.0258,-0.0257,-0.0243,-0.0243,-0.0243,-0.0262,0,0,0,0,0,0,-0.0211,-0.0218,-0.0226,-0.0252,-0.0261,-0.0306,-0.0287,-0.029,-0.0309,-0.0307,-0.0298,-0.0293,-0.0277,-0.0275,-0.0274,-0.0261,-0.0257,-0.0243,-0.0243,-0.0243,-0.0261,-0.0262,-0.0263,0,0,0,0,0,-0.0209,-0.0225,-0.0226,-0.0233,-0.0269,-0.0308,-0.0314,-0.0321,-0.0311,-0.0326,-0.0312,-0.0293,-0.0271,-0.0276,-0.0274,-0.0261,-0.0244,-0.0243,-0.0243,-0.0261,-0.0262,-0.0263,0,0,0,0,0,0,-0.0202,-0.0227,-0.0228,-0.0251,-0.028,-0.0306,-0.0324,-0.0328,-0.0334,-0.0328,-0.0305,-0.0301,-0.0288,-0.0279,-0.0285,-0.0254,-0.0249,-0.0248,-0.0263,-0.0264,-0.0264,-0.0267,-0.0257,0,0,0,0,0,-0.0205,-0.0223,-0.0249,-0.0271,-0.0283,-0.0305,-0.0322,-0.0331,-0.0339,-0.0341,-0.0328,-0.0308,-0.0288,-0.0281,-0.0267,-0.0266,-0.0239,-0.0251,-0.0252,-0.0252,-0.0253,-0.0189,-0.0183,-0.0241,-0.0241,-0.0241,0,0,-0.0209,-0.0226,-0.0237,-0.0272,-0.0291,-0.0328,-0.0312,-0.0345,-0.0368,-0.0335,-0.0349,-0.0316,-0.0289,-0.0277,-0.0269,-0.0267,-0.0227,-0.0252,-0.0253,-0.0253,-0.0188,-0.0182,-0.0177,-0.0241,-0.0241,-0.0241,0,0,-0.0231,-0.0242,-0.0264,-0.0305,-0.0343,-0.0349,-0.036,-0.0385,-0.0384,-0.04,-0.0365,-0.0328,-0.032,-0.0284,-0.0268,-0.0268,-0.0232,-0.0258,-0.0266,-0.0203,-0.0198,-0.0193,-0.0172,-0.0165,-0.0259,-0.0259,-0.0259,0,-0.0234,-0.0265,-0.0279,-0.033,-0.0366,-0.036,-0.0405,-0.0412,-0.0431,-0.0421,-0.0405,-0.0343,-0.032,-0.0279,-0.0273,-0.0268,-0.024,-0.0265,-0.0203,-0.0198,-0.0192,-0.0171,-0.0163,-0.026,-0.026,-0.0259,-0.0259,0,-0.0288,-0.0319,-0.0342,-0.0392,-0.0436,-0.0472,-0.0495,-0.0502,-0.0483,-0.0473,-0.0427,-0.0377,-0.0329,-0.0311,-0.0295,-0.0237,-0.0234,-0.0211,-0.0201,-0.0187,-0.0167,-0.0158,-0.0261,-0.0261,-0.026,-0.026,0,0,-0.0276,-0.0352,-0.0366,-0.0398,-0.0474,-0.0507,-0.0543,-0.055,-0.0549,-0.0515,-0.0488,-0.0424,-0.0362,-0.0338,-0.0287,-0.0234,-0.0175,-0.0208,-0.0204,-0.0189,-0.0061,-0.0076,-0.0068,-0.0133,-0.0131,-0.0129,-0.0072,0,-0.0303,-0.0381,-0.0425,-0.0502,-0.0539,-0.0576,-0.0601,-0.0619,-0.0605,-0.0574,-0.0482,-0.0431,-0.0382,-0.0336,-0.0274,-0.0185,-0.0148,-0.0195,-0.0077,-0.0074,-0.0088,-0.0056,-0.0123,-0.0065,-0.0063,-0.0061,-0.006,0,-0.0352,-0.0388,-0.0465,-0.0531,-0.0551,-0.0595,-0.0635,-0.0659,-0.0627,-0.0603,-0.0531,-0.0468,-0.0358,-0.0326,-0.0166,-0.0193,-0.0137,-0.0081,-0.0077,-0.0075,-0.0071,-0.0075,-0.0043,-0.0044,-0.0046,-0.0047,-0.0048,0,-0.0342,-0.0421,-0.0467,-0.0512,-0.0584,-0.0613,-0.0628,-0.0653,-0.0657,-0.0604,-0.0577,-0.0458,-0.0371,-0.0262,-0.0148,-0.0144,0.0002,0.0025,0.005,0.0048,0.0051,0.0045,0.0107,0.0107,0.0106,0.0106,0.0106,0,-0.037,-0.0412,-0.0456,-0.0502,-0.0541,-0.0599,-0.0631,-0.0642,-0.063,-0.0612,-0.0557,-0.0502,-0.0347,-0.0254,-0.0155,-0.002,0.0005,0.0054,0.0075,0.0037,0.0029,0.0056,0.005,0.0108,0.0108,0.0108,0.0107,0,-0.0383,-0.0416,-0.0474,-0.0529,-0.0551,-0.0583,-0.0636,-0.0646,-0.0628,-0.0606,-0.0575,-0.0501,-0.0365,-0.0256,-0.0092,-0.0027,0.0093,0.0111,0.0031,0.0045,0.0093,0.0085,0.0176,0.0176,0.0177,0.0177,0.0177,0,-0.0396,-0.0426,-0.0497,-0.0538,-0.057,-0.061,-0.0637,-0.0641,-0.0644,-0.0597,-0.0565,-0.0466,-0.0401,-0.0182,-0.0076,0.0084,0.0095,0.0131,0.0146,0.0095,0.0106,0.0098,0.0089,0.0177,0.0177,0.0177,0.0177,0,-0.042,-0.0445,-0.0489,-0.0559,-0.0604,-0.0639,-0.0659,-0.0656,-0.0635,-0.0623,-0.0529,-0.0435,-0.0311,-0.0165,-0.0071,0.0048,0.0113,0.0134,0.0135,0.0149,0.0098,0.0106,0.0098,0.0178,0.0178,0.0178,0.0178,0,-0.043,-0.0459,-0.0515,-0.0575,-0.0633,-0.0647,-0.066,-0.0632,-0.0617,-0.0554,-0.0523,-0.0399,-0.0334,-0.0185,-0.0079,0.002,0.0059,0.0089,0.0093,0.0093,0.005,-0.0029,0.004,0,0,0,0,0,-0.043,-0.0468,-0.053,-0.0584,-0.0634,-0.0656,-0.0672,-0.0666,-0.0638,-0.0567,-0.054,-0.0421,-0.0256,-0.0191,-0.0086,-0.0081,0.0059,0.0041,0.0092,0.0182,0.0181,0.0143,0,0,0,0,0,0,-0.0438,-0.0495,-0.0522,-0.0572,-0.0605,-0.0634,-0.0641,-0.0622,-0.0573,-0.0542,-0.0449,-0.0402,-0.0242,-0.0304,-0.0082,-0.0056,-0.0012,0.0117,0.0119,0.0182,0.0181,0.0181,0.0142,0,0,0,0,0]}]]